Theta_e
351 349 351 348 348 344 335 348 346 339 345 338 336 336 339 336 341 342 339 329 329 330 334 335 329 334 332 332 327 323 321 328 332 331 330 331 326 330 329 326 327 326 327
350 348 350 349 348 347 347 348 343 336 345 342 341 339 337 337 335 340 341 339 329 329 330 337 335 331 332 333 332 328 326 324 327 329 333 331 332 331 331 329 325 327 329
351 347 349 350 349 350 345 345 342 343 342 339 335 339 337 337 336 339 342 342 338 334 333 338 339 334 332 332 334 333 332 331 329 327 330 327 329 330 332 331 330 330 330
352 345 351 350 345 349 345 344 343 345 342 342 336 339 338 336 334 337 340 343 343 342 335 336 339 338 337 334 335 336 333 333 332 332 330 326 327 330 328 327 328 331 328
341 352 349 348 347 348 348 346 343 346 340 339 340 336 338 336 338 337 337 340 340 340 339 337 334 337 338 338 337 335 334 334 335 334 334 336 334 333 334 333 331 330 332
342 342 350 352 348 349 350 346 346 342 338 336 338 338 337 335 337 338 338 339 336 338 340 339 339 340 335 333 335 338 338 339 337 336 335 335 334 335 335 336 336 335 335
344 345 350 351 348 346 349 341 341 343 338 338 335 336 334 336 336 337 335 334 337 337 342 339 339 341 338 337 335 334 334 335 337 339 339 339 339 339 339 339 339 340 339
349 346 346 348 353 348 348 340 348 345 340 339 341 339 339 337 336 336 335 335 334 334 335 338 339 338 340 339 332 329 325 326 326 327 329 331 333 334 336 337 338 338 337
347 349 351 347 353 349 349 341 342 344 342 336 342 343 338 338 337 336 335 336 334 334 334 335 338 339 338 335 328 323 320 320 319 319 319 319 320 321 323 323 324 324 324
349 351 352 348 348 350 350 348 342 344 346 343 332 340 342 344 339 339 338 338 335 336 336 336 336 332 334 335 333 324 320 320 319 319 319 319 318 318 317 316 316 316 315
349 348 355 351 345 346 352 350 346 345 342 347 340 337 337 338 340 342 339 339 338 337 337 337 337 337 336 336 336 334 326 325 325 326 326 325 325 324 323 322 322 321 321
352 351 353 352 349 345 352 352 347 341 346 344 344 341 341 339 340 338 340 340 339 338 336 336 336 334 337 336 334 334 332 327 326 323 321 322 323 324 325 325 325 324 323
353 353 348 353 351 346 348 350 348 344 338 345 342 339 341 342 341 341 339 340 340 338 337 336 336 335 335 336 336 336 335 331 326 324 321 324 326 326 326 326 326 326 326
351 352 352 349 347 345 346 351 347 350 349 337 330 339 340 340 341 341 340 338 339 338 338 337 336 336 336 335 335 335 335 333 327 326 325 326 326 326 326 326 326 326 326
352 351 350 350 350 350 345 346 351 347 350 349 333 325 336 340 341 341 340 339 338 338 338 338 337 336 335 335 335 334 333 330 330 330 328 327 326 326 325 325 325 325 326
350 353 351 351 350 351 349 351 346 347 351 350 349 334 325 330 338 340 340 339 337 336 336 339 337 336 335 335 335 334 330 331 333 331 328 328 327 326 326 326 325 323 324
357 350 357 353 351 351 346 350 349 347 345 350 350 347 336 329 329 337 339 338 337 336 334 334 338 337 336 334 334 336 334 333 334 332 334 334 333 331 327 327 325 323 322
347 357 351 357 354 354 345 344 342 345 352 350 347 347 344 336 332 334 339 338 337 337 336 335 335 338 337 337 336 332 330 334 336 337 337 335 334 331 328 330 329 327 323
345 344 351 351 356 354 350 345 340 340 341 353 351 349 348 339 333 330 333 337 338 338 337 336 336 336 336 337 338 337 336 336 331 333 335 334 333 333 332 330 329 328 327
338 341 342 348 351 349 348 348 348 342 338 340 350 355 350 346 338 331 330 328 331 337 336 336 335 334 338 338 338 339 336 336 335 335 337 336 334 333 333 331 330 330 329
339 337 339 341 346 349 346 345 348 347 346 339 338 350 353 349 341 336 335 333 329 335 338 337 337 337 337 336 338 338 338 336 336 335 336 336 335 334 333 333 332 331 330
346 345 342 342 343 343 343 342 343 346 347 347 344 342 350 350 345 343 339 340 334 331 331 333 335 336 338 337 336 336 338 337 337 335 335 334 334 334 334 333 330 327 325
354 350 350 348 343 341 339 340 341 343 347 348 346 345 344 344 348 347 346 343 343 337 339 339 339 337 337 337 337 338 338 337 336 336 336 335 334 333 333 329 327 325 324
358 356 354 351 350 343 342 340 341 344 347 348 350 347 345 344 349 349 347 348 345 343 340 342 343 343 339 338 339 338 338 338 335 334 334 335 331 330 330 328 325 324 323
363 360 356 358 355 350 351 350 351 353 351 350 351 351 351 350 347 353 353 348 345 346 343 342 343 345 345 343 336 338 340 338 332 331 331 332 332 332 330 323 322 321 320
362 364 361 358 360 358 359 358 360 359 356 353 355 354 353 353 351 350 354 354 353 347 345 344 344 344 344 343 339 339 337 337 334 335 332 332 332 331 327 323 320 320 317
Wind_Speed
6 4 4 3 3 4 4 2 2 3 4 12 9 8 2 3 5 3 7 6 1 0 3 6 6 6 5 5 4 5 5 4 3 1 1 1 1 1 1 2 3 3 3
5 7 6 7 1 4 6 3 5 7 5 10 4 4 7 2 0 5 3 9 6 3 2 3 6 6 5 5 5 4 4 4 3 2 1 1 1 2 2 3 3 3 4
2 5 4 2 5 3 4 1 3 7 8 9 8 3 6 5 7 3 2 5 8 8 6 2 4 6 5 5 5 4 4 4 3 3 4 3 3 3 4 4 4 4 4
7 4 6 2 3 6 1 2 4 5 6 6 5 2 6 5 5 5 4 3 4 6 8 6 2 4 4 4 5 5 4 4 4 4 3 3 4 3 4 4 5 5 5
9 8 6 4 2 2 6 2 1 2 5 4 4 7 5 3 4 3 5 2 3 8 9 8 8 4 2 1 3 4 5 6 6 6 6 5 5 5 6 6 6 5 6
10 9 6 5 3 4 3 2 3 1 2 3 13 10 6 5 7 3 6 5 3 3 6 9 6 5 3 2 0 2 3 5 6 6 6 7 7 8 9 9 9 9 8
14 10 7 7 5 3 4 3 7 6 3 7 7 8 4 9 6 5 9 4 3 8 3 7 2 4 5 3 2 2 2 2 2 4 5 6 6 6 7 8 8 8 8
15 12 12 7 5 7 8 3 8 8 3 9 6 7 7 7 4 7 4 3 6 5 4 2 3 3 1 4 5 5 3 3 2 2 3 3 4 4 5 5 5 6 7
15 13 12 10 11 10 6 4 9 9 6 5 5 4 6 4 10 3 7 8 7 5 3 5 3 4 3 3 5 4 3 2 2 2 2 2 2 3 4 4 5 6 6
19 15 14 13 14 9 9 5 7 10 6 5 7 7 3 3 5 6 4 8 3 4 4 2 1 5 7 4 7 7 5 4 4 5 5 4 5 5 5 5 5 5 6
16 19 19 15 13 13 10 8 8 12 10 8 4 5 5 2 2 4 10 10 6 6 5 5 7 3 2 4 4 3 6 4 4 4 4 5 6 6 6 6 6 7 8
19 18 19 18 15 13 14 12 13 11 12 12 10 8 5 6 6 7 9 12 9 11 7 5 9 6 5 7 7 6 6 5 3 3 3 5 5 5 4 5 6 7 8
25 21 19 23 20 16 16 14 12 12 14 15 17 13 11 8 5 5 5 6 7 8 10 8 10 6 6 8 10 9 10 8 4 2 1 2 3 3 4 7 9 9 10
22 24 22 21 19 19 20 17 17 14 14 15 14 16 14 11 9 9 7 4 5 9 11 6 10 9 8 12 12 11 11 10 6 6 5 4 4 5 7 9 11 13 13
23 24 24 24 22 21 22 23 22 19 15 15 14 15 17 15 11 10 10 9 8 6 13 12 11 12 10 11 12 14 15 14 10 9 8 7 7 8 10 12 14 15 14
29 21 27 27 24 22 25 23 25 23 21 22 19 18 18 18 16 14 13 11 11 10 7 5 7 10 12 9 13 12 12 10 10 11 9 9 9 10 12 14 15 15 14
28 28 21 28 27 24 26 29 29 26 27 27 25 22 21 19 19 17 16 16 14 12 12 8 7 10 12 13 13 12 13 13 15 10 11 11 12 14 16 17 16 14 14
38 34 33 29 32 30 27 29 32 32 30 30 30 30 28 25 22 22 20 18 17 16 15 13 12 11 14 13 12 16 18 14 15 17 15 15 14 15 13 16 17 14 14
42 39 39 40 36 34 31 29 31 32 34 33 34 33 31 31 28 25 27 25 22 20 21 22 19 17 18 16 14 12 12 12 8 20 21 18 17 16 17 14 13 9 10
46 45 44 43 43 42 39 36 34 34 34 36 36 35 35 33 31 28 28 31 28 25 22 24 20 21 17 18 19 17 13 12 12 13 17 15 15 14 16 16 15 12 12
48 47 46 46 46 45 44 42 40 39 38 38 38 38 38 38 36 33 31 31 31 31 27 25 24 22 21 21 24 22 19 12 12 12 16 17 15 17 17 17 19 18 16
48 47 49 48 48 49 48 45 43 43 42 41 41 41 41 41 41 38 35 31 31 33 34 33 28 25 21 22 24 22 17 12 14 14 16 17 21 15 16 16 13 12 11
48 49 49 49 50 51 51 49 45 44 44 44 43 43 43 46 46 45 41 36 33 35 34 31 32 30 28 24 24 22 21 22 22 17 15 19 18 18 17 15 17 16 17
51 51 51 51 51 53 52 51 49 47 48 48 47 46 46 46 47 47 45 43 42 41 39 38 35 31 30 28 28 29 29 26 24 21 19 23 17 13 13 18 18 17 16
48 51 51 50 53 55 54 53 51 50 52 54 54 53 51 49 47 48 48 49 47 43 43 42 38 35 34 34 34 31 29 29 26 20 14 15 16 15 19 14 17 17 16
46 44 47 48 48 50 50 50 49 50 55 59 58 59 57 56 51 48 51 51 52 50 42 43 45 43 40 35 30 32 28 25 20 16 13 17 16 19 18 15 17 16 15
Wind_Direction
133 153 106 91 149 43 250 92 266 98 106 107 99 49 9 82 55 43 21 34 29 270 174 180 169 174 167 159 155 164 171 168 161 140 107 101 44 60 16 359 6 8 9
148 148 140 139 216 354 50 60 306 51 97 93 80 98 83 30 292 353 312 39 76 54 49 175 182 178 178 177 179 166 173 185 204 225 241 258 286 300 317 333 330 334 342
203 150 110 122 130 65 84 83 31 59 128 111 75 78 113 88 116 10 60 55 78 61 72 111 179 175 173 187 188 191 189 202 207 225 245 262 267 279 298 304 307 312 319
169 157 97 268 36 99 14 70 350 17 85 180 62 343 141 41 94 94 50 37 24 53 63 72 93 173 174 163 191 209 213 220 227 231 243 268 262 273 277 284 294 298 308
191 181 163 273 276 224 133 93 123 7 120 154 154 114 112 58 111 131 152 179 15 16 62 51 71 71 115 198 213 223 235 237 239 243 246 257 267 273 281 279 281 286 294
217 192 179 234 279 83 102 183 177 187 135 126 133 115 96 114 146 76 116 132 342 341 42 43 48 51 64 73 275 254 259 259 256 258 260 264 272 275 276 274 277 283 285
234 220 224 262 185 224 200 264 129 112 137 132 112 141 103 108 100 74 114 92 93 61 77 24 23 45 65 62 58 307 271 276 252 251 261 268 274 275 279 281 285 290 293
228 226 222 227 219 238 248 215 178 159 195 175 190 180 151 150 117 136 125 137 101 115 110 5 59 15 21 71 2 317 312 281 277 269 271 283 289 290 291 292 297 299 300
227 229 231 214 217 230 237 198 171 165 163 194 202 120 160 182 172 212 147 164 134 197 190 151 160 153 195 308 350 27 3 340 319 345 333 340 339 341 339 330 325 319 311
220 225 244 235 213 223 243 223 182 174 190 212 221 200 254 108 169 174 189 221 210 218 169 176 243 78 192 237 353 26 45 68 70 70 64 59 45 29 20 8 354 342 337
240 212 233 239 232 211 224 233 195 189 192 186 212 218 247 163 171 173 194 221 232 214 213 173 220 203 84 233 293 7 24 53 72 69 59 57 51 38 29 13 4 356 351
234 233 219 237 240 209 212 223 224 212 195 198 188 206 212 175 193 215 230 219 226 194 219 219 210 249 229 259 259 293 326 335 0 23 35 48 51 46 20 5 348 350 343
226 236 223 224 231 228 206 230 228 221 205 207 200 197 196 231 242 241 257 222 203 202 196 225 239 217 216 245 279 277 288 300 303 316 19 37 38 18 352 340 331 325 326
224 227 238 231 238 237 212 214 235 224 233 216 210 198 188 200 222 232 223 237 221 196 224 238 209 228 233 230 248 264 272 293 286 286 279 286 308 312 326 327 321 317 315
218 226 231 235 238 237 228 216 221 230 226 238 228 211 200 193 215 223 227 216 232 271 236 227 197 225 223 236 244 259 268 268 264 273 278 277 283 308 308 311 317 311 301
214 216 231 231 235 242 226 223 223 223 230 231 237 228 213 208 198 225 222 231 228 236 262 228 210 222 220 228 257 265 264 263 261 275 275 283 287 296 301 305 303 301 297
216 217 228 234 237 243 227 221 226 226 229 231 234 233 232 222 214 213 237 221 228 231 234 221 223 235 238 239 242 243 249 253 258 277 267 276 278 297 302 302 298 297 294
219 220 219 227 235 243 237 229 229 224 225 239 238 234 237 236 229 211 222 241 230 229 236 228 232 236 244 256 263 263 265 264 267 276 277 261 285 299 306 311 309 301 296
230 229 228 227 234 240 243 240 238 238 228 233 246 247 237 242 241 230 222 226 235 229 231 234 231 241 254 257 253 253 270 281 263 248 263 276 277 275 301 312 306 312 302
237 235 235 236 235 242 246 247 244 243 243 238 238 248 251 246 247 245 236 236 232 238 238 239 241 230 238 249 251 246 257 267 280 271 262 263 265 279 292 298 299 289 281
237 241 240 239 240 242 245 247 246 245 246 247 242 238 245 251 252 251 246 240 233 227 232 236 237 236 229 234 238 242 245 257 256 261 252 260 255 281 286 298 291 279 273
241 240 242 241 240 243 246 248 248 246 246 247 250 246 241 248 253 253 252 248 242 234 231 231 238 238 236 228 241 244 234 232 241 254 259 246 259 266 288 289 275 276 274
239 242 242 242 243 243 246 248 247 247 246 247 249 249 246 246 248 251 253 250 244 238 235 239 235 230 233 235 235 231 232 234 248 252 253 249 255 263 264 281 288 293 305
236 240 242 244 245 246 245 245 246 246 246 249 250 251 249 247 244 245 247 247 245 239 236 236 238 243 233 231 230 231 237 241 249 245 258 260 268 267 256 271 277 288 299
233 237 244 243 247 250 249 248 243 242 245 248 248 250 252 251 247 242 242 247 248 243 241 241 240 245 246 235 238 239 232 233 240 241 220 242 264 257 254 265 274 284 290
236 236 242 246 248 252 252 249 243 240 242 246 245 247 249 251 251 247 240 244 246 248 243 242 237 236 241 245 232 239 243 247 236 229 231 238 245 236 251 254 267 275 289